GW2326 Weather Reports


Display with metric or nautical units.
time (UTC)temp
F
wind
direction
speed
MPH
gust
MPH
rain 1hr
in
rain 24hr
in
rain mn
in
humidity
%
barometer
mb
20260507083550 53 47 5.0 9.0 0.00 0.05 0.00 86 1020.4
20260507083059 53 34 5.0 10.0 0.00 0.05 0.00 86 1020.5
20260507082552 53 40 5.0 10.0 0.00 0.05 0.00 86 1020.3
20260507082052 53 36 6.0 11.0 0.00 0.05 0.00 86 1020.1
20260507081557 53 45 7.0 11.0 0.00 0.05 0.00 86 1020.1
20260507081050 53 28 8.0 11.0 0.00 0.05 0.00 86 1020.1
20260507080549 53 17 8.0 11.0 0.00 0.05 0.00 86 1020.0
20260507080056 53 34 7.0 10.0 0.00 0.05 0.00 85 1020.0
20260507075550 53 28 6.0 9.0 0.00 0.05 0.00 85 1020.0
20260507075050 53 45 5.0 8.0 0.00 0.05 0.00 84 1020.0
20260507074552 54 19 5.0 8.0 0.00 0.05 0.00 84 1019.9
20260507074051 54 30 5.0 9.0 0.00 0.05 0.00 84 1019.8
20260507073551 54 30 5.0 9.0 0.00 0.05 0.00 83 1019.8
20260507073100 54 40 6.0 11.0 0.00 0.05 0.00 83 1019.8
20260507072552 54 40 6.0 11.0 0.00 0.05 0.00 83 1019.7
20260507072050 54 51 7.0 12.0 0.00 0.05 0.00 83 1019.5
20260507071558 54 39 8.0 12.0 0.00 0.05 0.00 83 1019.2
20260507071050 54 43 8.0 12.0 0.00 0.05 0.00 83 1019.2
20260507070550 54 22 8.0 13.0 0.00 0.05 0.00 83 1019.2
20260507070135 54 70 8.0 13.0 0.00 0.05 0.00 83 1019.2
20260507065553 54 50 9.0 12.0 0.00 0.05 0.00 82 1019.1
20260507065050 55 40 9.0 12.0 0.00 0.05 0.00 82 1019.1
20260507064553 55 45 9.0 12.0 0.00 0.05 0.00 82 1019.2
20260507064050 55 44 7.0 12.0 0.00 0.05 0.00 81 1019.3
20260507063550 55 53 9.0 12.0 0.00 0.05 0.00 81 1019.2
20260507063057 55 46 9.0 11.0 0.00 0.05 0.00 81 1019.1
20260507062550 55 56 8.0 11.0 0.00 0.05 0.00 80 1019.1
20260507062052 56 65 9.0 11.0 0.00 0.05 0.00 80 1019.1
20260507061552 56 48 9.0 11.0 0.00 0.05 0.00 80 1019.1
20260507061050 56 61 9.0 11.0 0.00 0.05 0.00 80 1019.0
20260507060546 56 88 8.0 11.0 0.00 0.05 0.00 80 1019.0
20260507060053 56 66 6.0 10.0 0.00 0.05 0.00 79 1019.0
20260507055551 56 63 7.0 10.0 0.00 0.05 0.00 79 1019.0
20260507055051 56 65 7.0 10.0 0.00 0.05 0.00 79 1018.8
20260507054556 56 64 8.0 10.0 0.00 0.05 0.00 79 1018.8
20260507054051 57 70 7.0 11.0 0.00 0.05 0.00 78 1018.8
20260507053551 57 71 8.0 11.0 0.00 0.05 0.00 78 1018.9
20260507053055 57 76 8.0 10.0 0.00 0.05 0.00 78 1018.8
20260507052551 57 86 6.0 10.0 0.00 0.05 0.00 79 1018.8
20260507052050 57 70 4.0 7.0 0.00 0.05 0.00 79 1018.9
20260507051555 57 92 3.0 6.0 0.00 0.05 0.00 78 1018.8
20260507051050 57 79 3.0 8.0 0.00 0.05 0.00 77 1018.7
20260507050551 57 74 5.0 8.0 0.00 0.05 0.00 77 1018.5
20260507050103 57 85 5.0 8.0 0.00 0.05 0.00 77 1018.4
20260507045550 58 84 6.0 8.0 0.00 0.05 0.05 76 1018.5
20260507045050 58 88 4.0 10.0 0.00 0.05 0.05 76 1018.5
20260507044550 58 106 5.0 10.0 0.00 0.05 0.05 75 1018.4
20260507044047 58 86 8.0 12.0 0.00 0.05 0.05 75 1018.4
20260507043550 58 69 8.0 12.0 0.00 0.05 0.05 74 1018.4
20260507043053 59 67 9.0 12.0 0.00 0.05 0.05 74 1018.4
20260507042550 59 72 9.0 12.0 0.00 0.05 0.05 74 1018.2
20260507042050 59 77 10.0 14.0 0.00 0.05 0.05 74 1018.2
20260507041553 59 82 10.0 15.0 0.00 0.05 0.05 73 1018.1
20260507041050 59 72 11.0 15.0 0.00 0.05 0.05 73 1017.9
20260507040552 60 80 12.0 15.0 0.00 0.05 0.05 73 1017.9
20260507040052 60 80 12.0 15.0 0.00 0.05 0.05 72 1017.8
20260507035550 60 79 11.0 14.0 0.00 0.05 0.05 72 1017.7
20260507035050 60 81 10.0 14.0 0.00 0.05 0.05 72 1017.8
20260507034553 60 79 10.0 12.0 0.00 0.05 0.05 72 1017.6
20260507034050 60 82 8.0 13.0 0.00 0.05 0.05 72 1017.5
20260507033551 60 80 9.0 14.0 0.00 0.05 0.05 71 1017.6
20260507033053 61 93 11.0 14.0 0.00 0.05 0.05 71 1017.3
20260507032551 61 82 10.0 13.0 0.00 0.05 0.05 71 1017.2
20260507032051 61 80 11.0 15.0 0.00 0.05 0.05 71 1017.3
20260507031553 61 79 11.0 15.0 0.00 0.05 0.05 70 1017.2
20260507031053 62 77 12.0 15.0 0.00 0.05 0.05 70 1017.2
20260507030550 62 77 11.0 15.0 0.00 0.05 0.05 71 1017.1
20260507030101 62 73 10.0 14.0 0.00 0.05 0.05 71 1017.1
20260507025550 62 69 10.0 13.0 0.00 0.05 0.05 71 1017.0
20260507025050 63 86 9.0 12.0 0.00 0.05 0.05 72 1017.0
20260507024612 63 84 7.0 12.0 0.00 0.05 0.05 74 1016.8
20260507024055 63 105 8.0 12.0 0.00 0.05 0.05 75 1016.7
20260507023554 63 91 9.0 12.0 0.00 0.05 0.05 75 1016.5
20260507023053 64 83 8.0 12.0 0.00 0.05 0.05 74 1016.4
20260507022551 64 111 8.0 12.0 0.00 0.05 0.05 74 1016.3
20260507022051 64 117 8.0 11.0 0.00 0.05 0.05 73 1016.2
20260507021614 65 109 6.0 9.0 0.00 0.05 0.05 73 1016.1
20260507021050 65 105 6.0 9.0 0.00 0.05 0.05 72 1016.0
20260507020551 65 110 7.0 10.0 0.00 0.05 0.05 72 1016.1
20260507020105 66 113 7.0 11.0 0.00 0.05 0.05 71 1016.1
20260507015550 66 115 7.0 12.0 0.00 0.05 0.05 71 1016.1
20260507015052 66 115 9.0 12.0 0.00 0.05 0.05 70 1016.0
20260507014609 66 130 7.0 9.0 0.00 0.05 0.05 70 1016.1
20260507014050 67 127 6.0 9.0 0.00 0.05 0.05 69 1016.2
20260507013547 67 128 7.0 10.0 0.00 0.05 0.05 69 1016.1
20260507013055 67 119 7.0 10.0 0.00 0.05 0.05 69 1015.8
20260507012554 67 88 7.0 10.0 0.00 0.05 0.05 68 1015.8
20260507012051 68 86 7.0 12.0 0.00 0.05 0.05 68 1015.6
20260507011553 68 76 7.0 12.0 0.00 0.05 0.05 67 1015.6
20260507011050 68 121 9.0 13.0 0.00 0.05 0.05 66 1015.5
20260507010555 68 138 10.0 13.0 0.00 0.05 0.05 66 1015.5
20260507010108 69 136 11.0 16.0 0.00 0.05 0.05 65 1015.5
20260507005552 69 136 12.0 16.0 0.00 0.05 0.05 64 1015.4
20260507005051 70 142 12.0 15.0 0.00 0.05 0.05 62 1015.3
20260507004556 70 134 9.0 13.0 0.00 0.05 0.05 62 1015.1
20260507004050 70 128 10.0 13.0 0.00 0.05 0.05 60 1015.2
20260507003551 71 132 10.0 13.0 0.00 0.05 0.05 60 1015.2
20260507003057 71 138 9.0 12.0 0.00 0.05 0.05 59 1015.1
20260507002550 71 137 9.0 12.0 0.00 0.05 0.05 59 1015.2
20260507002050 71 129 8.0 12.0 0.00 0.05 0.05 58 1015.2
20260507001602 71 125 8.0 12.0 0.00 0.05 0.05 57 1015.1
20260507001050 71 102 8.0 11.0 0.00 0.05 0.05 56 1015.1
20260507000551 71 74 7.0 10.0 0.00 0.05 0.05 56 1015.0
20260507000055 71 88 6.0 10.0 0.00 0.05 0.05 56 1015.1
20260506235551 71 59 6.0 10.0 0.00 0.05 0.05 56 1015.1
20260506235052 71 115 5.0 9.0 0.00 0.05 0.05 56 1015.0
20260506234555 71 108 4.0 10.0 0.00 0.05 0.05 56 1015.0
20260506234050 71 98 6.0 11.0 0.00 0.05 0.05 56 1015.1
20260506233552 71 92 8.0 12.0 0.00 0.05 0.05 56 1015.0
20260506233057 71 55 9.0 12.0 0.00 0.05 0.05 56 1015.0
20260506232550 71 107 7.0 11.0 0.00 0.05 0.05 56 1015.0
20260506232050 71 73 6.0 11.0 0.00 0.05 0.05 56 1015.0
20260506231557 72 57 4.0 11.0 0.00 0.05 0.05 56 1014.8
20260506231055 71 55 6.0 12.0 0.00 0.05 0.05 58 1014.8
20260506230554 71 88 5.0 12.0 0.00 0.05 0.05 58 1014.8
20260506230104 71 76 6.0 10.0 0.00 0.05 0.05 59 1014.7
20260506225552 70 105 4.0 10.0 0.00 0.05 0.05 60 1014.7
20260506225052 70 65 5.0 13.0 0.00 0.05 0.05 60 1014.7
20260506224600 70 60 10.0 13.0 0.00 0.05 0.05 60 1014.6
20260506224050 70 111 5.0 12.0 0.00 0.05 0.05 60 1014.7
20260506223551 70 82 5.0 12.0 0.00 0.05 0.05 60 1014.6
20260506223053 70 86 6.0 12.0 0.00 0.05 0.05 60 1014.6
20260506222550 70 33 4.0 12.0 0.00 0.05 0.05 59 1014.6
20260506222050 69 44 4.0 11.0 0.00 0.05 0.05 60 1014.7
20260506221553 69 38 7.0 10.0 0.00 0.05 0.05 61 1014.7
20260506221050 69 128 4.0 9.0 0.00 0.05 0.05 60 1014.7
20260506220550 69 113 6.0 11.0 0.00 0.05 0.05 61 1014.7
20260506220052 69 138 3.0 11.0 0.00 0.05 0.05 61 1014.6
20260506215554 69 102 6.0 11.0 0.00 0.05 0.05 61 1014.7
20260506215051 69 115 4.0 11.0 0.00 0.05 0.05 60 1014.7
20260506214552 69 112 5.0 11.0 0.00 0.05 0.05 61 1014.8
20260506214051 69 0 4.0 14.0 0.00 0.05 0.05 61 1014.8
20260506213550 68 136 4.0 14.0 0.00 0.05 0.05 62 1014.8
20260506213055 68 74 11.0 14.0 0.00 0.05 0.05 62 1014.8
20260506212553 68 116 3.0 11.0 0.00 0.05 0.05 62 1014.8
20260506212051 68 176 2.0 12.0 0.00 0.05 0.05 62 1014.9
20260506211550 67 115 5.0 14.0 0.00 0.05 0.05 63 1014.8
20260506211050 67 84 4.0 14.0 0.00 0.05 0.05 64 1014.9
20260506210551 67 40 9.0 14.0 0.00 0.05 0.05 64 1015.0
20260506210055 66 78 2.0 10.0 0.00 0.05 0.05 65 1015.1
20260506205550 66 118 3.0 13.0 0.00 0.05 0.05 65 1015.2
20260506205052 65 65 6.0 13.0 0.00 0.05 0.05 66 1015.3
20260506204551 65 82 7.0 13.0 0.00 0.05 0.05 68 1015.4
20260506204050 64 98 5.0 12.0 0.00 0.05 0.05 67 1015.7
20260506203550 64 82 4.0 11.0 0.00 0.05 0.05 69 1015.7
20260506203054 64 76 7.0 11.0 0.00 0.05 0.05 68 1015.8
20260506202552 63 36 4.0 11.0 0.00 0.05 0.05 70 1015.8
20260506202051 63 79 6.0 11.0 0.00 0.05 0.05 70 1015.8
20260506201615 63 62 5.0 11.0 0.00 0.05 0.05 69 1015.8
20260506201050 63 90 4.0 11.0 0.00 0.05 0.05 70 1016.0
20260506200550 62 89 3.0 10.0 0.00 0.05 0.05 71 1015.9
20260506200052 62 93 6.0 11.0 0.00 0.05 0.05 71 1016.1
20260506195550 62 38 4.0 11.0 0.00 0.05 0.05 72 1016.1
20260506195052 61 51 3.0 10.0 0.00 0.05 0.05 72 1016.2
20260506194554 61 65 7.0 10.0 0.00 0.05 0.05 71 1016.3
20260506194050 61 159 2.0 9.0 0.00 0.05 0.05 72 1016.4
20260506193550 61 59 4.0 11.0 0.00 0.05 0.05 73 1016.3
20260506193055 61 55 7.0 11.0 0.00 0.05 0.05 73 1016.4
20260506192551 60 63 7.0 11.0 0.00 0.05 0.05 73 1016.6
20260506192051 60 68 5.0 12.0 0.00 0.05 0.05 74 1016.5
20260506191558 60 57 8.0 12.0 0.00 0.05 0.05 73 1016.6
20260506191051 60 74 8.0 13.0 0.00 0.05 0.05 73 1016.6
20260506190553 60 360 7.0 13.0 0.00 0.05 0.05 74 1016.6
20260506190103 60 48 9.0 16.0 0.00 0.05 0.05 74 1016.6
20260506185550 60 15 9.0 16.0 0.00 0.05 0.05 75 1016.8
20260506185050 60 54 8.0 14.0 0.00 0.05 0.05 75 1016.8
20260506184603 60 37 8.0 14.0 0.00 0.05 0.05 75 1016.9
20260506184050 59 49 9.0 14.0 0.00 0.05 0.05 76 1017.0
20260506183550 59 61 6.0 12.0 0.00 0.05 0.05 74 1017.1
20260506183054 60 55 6.0 15.0 0.00 0.05 0.05 75 1017.1
20260506182554 59 17 8.0 15.0 0.00 0.05 0.05 77 1017.2
20260506182050 59 42 9.0 15.0 0.00 0.05 0.05 76 1017.2
20260506181601 59 62 11.0 14.0 0.00 0.05 0.05 76 1017.0
20260506181052 58 63 8.0 14.0 0.00 0.05 0.05 76 1017.1
20260506180551 58 38 6.0 14.0 0.00 0.05 0.05 77 1017.3
20260506180100 58 62 10.0 16.0 0.00 0.05 0.05 76 1017.4
20260506175551 58 19 10.0 16.0 0.00 0.05 0.05 76 1017.4
20260506175051 58 339 9.0 15.0 0.00 0.05 0.05 76 1017.4
20260506174559 58 36 9.0 15.0 0.00 0.05 0.05 77 1017.4
20260506174051 58 27 7.0 15.0 0.00 0.05 0.05 79 1017.4
20260506173551 58 53 10.0 14.0 0.00 0.05 0.05 78 1017.5
20260506173118 58 53 10.0 15.0 0.00 0.05 0.05 78 1017.4
20260506172550 57 43 8.0 16.0 0.00 0.05 0.05 79 1017.4
20260506172050 57 29 11.0 18.0 0.00 0.05 0.05 81 1017.3
20260506171558 57 77 12.0 18.0 0.00 0.05 0.05 80 1017.3
20260506171050 56 41 10.0 18.0 0.00 0.05 0.05 81 1017.3
20260506170550 56 53 11.0 18.0 0.00 0.05 0.05 82 1017.3
20260506170056 56 57 11.0 16.0 0.00 0.05 0.05 81 1017.4
20260506165550 56 48 11.0 16.0 0.00 0.05 0.05 81 1017.4
20260506165051 56 30 11.0 20.0 0.00 0.05 0.05 81 1017.5
20260506164553 56 24 12.0 20.0 0.00 0.05 0.05 81 1017.3
20260506164050 56 33 10.0 17.0 0.00 0.05 0.05 81 1017.4
20260506163551 56 54 12.0 19.0 0.00 0.05 0.05 82 1017.1
20260506163103 56 46 13.0 19.0 0.00 0.05 0.05 82 1017.1
20260506162551 56 42 13.0 20.0 0.00 0.05 0.05 81 1017.0
20260506162050 56 19 14.0 20.0 0.00 0.05 0.05 82 1017.0
20260506161600 56 45 13.0 17.0 0.00 0.05 0.05 82 1016.8
20260506161050 55 18 11.0 17.0 0.00 0.05 0.05 83 1016.7
20260506160550 55 40 11.0 19.0 0.00 0.05 0.05 83 1016.7
20260506160051 55 17 13.0 19.0 0.00 0.05 0.05 83 1016.8
20260506155550 55 352 14.0 18.0 0.00 0.05 0.05 83 1016.6
20260506155050 54 54 11.0 18.0 0.00 0.05 0.05 84 1016.6
20260506154605 54 32 12.0 17.0 0.00 0.05 0.05 84 1016.5
20260506154048 54 45 13.0 18.0 0.00 0.05 0.05 84 1016.6
20260506153551 54 9 13.0 18.0 0.00 0.05 0.05 84 1016.5
20260506153055 54 45 14.0 20.0 0.00 0.05 0.05 84 1016.4
20260506152550 54 40 14.0 20.0 0.00 0.05 0.05 85 1016.5
20260506152054 54 34 13.0 19.0 0.00 0.05 0.05 84 1016.4
20260506151555 54 13 14.0 19.0 0.00 0.05 0.05 85 1016.0
20260506151050 54 13 13.0 19.0 0.00 0.05 0.05 86 1015.9
20260506150550 53 25 13.0 20.0 0.00 0.05 0.05 86 1016.1
20260506150054 53 19 16.0 20.0 0.00 0.05 0.05 87 1016.3
20260506145554 53 360 12.0 20.0 0.00 0.05 0.05 87 1016.5
20260506145050 53 44 14.0 20.0 0.00 0.05 0.05 88 1016.4
20260506144554 53 42 14.0 21.0 0.00 0.05 0.05 88 1016.0
20260506144050 53 46 15.0 21.0 0.00 0.05 0.05 88 1016.0
20260506143551 53 30 14.0 18.0 0.00 0.05 0.05 89 1016.0
20260506143052 52 23 12.0 18.0 0.00 0.05 0.05 89 1015.9
20260506142551 52 55 12.0 18.0 0.00 0.05 0.05 89 1015.7
20260506142050 52 44 14.0 20.0 0.00 0.05 0.05 89 1015.6
20260506141558 52 50 14.0 20.0 0.00 0.05 0.05 90 1015.5
20260506141051 52 351 14.0 20.0 0.02 0.05 0.05 90 1015.5
20260506140552 52 47 13.0 22.0 0.02 0.05 0.05 90 1015.6
20260506140101 52 27 15.0 24.0 0.02 0.05 0.05 90 1015.8
20260506135550 52 24 15.0 25.0 0.03 0.05 0.05 91 1015.8
20260506135050 52 9 18.0 25.0 0.03 0.05 0.05 91 1015.6
20260506134557 52 5 18.0 24.0 0.03 0.05 0.05 91 1014.7
20260506134050 52 15 18.0 24.0 0.03 0.05 0.05 90 1014.5
20260506133550 52 38 15.0 21.0 0.03 0.05 0.05 90 1014.6
20260506133100 52 19 14.0 19.0 0.03 0.05 0.05 90 1014.9
20260506132550 52 59 13.0 19.0 0.03 0.05 0.05 90 1015.1
20260506132053 52 69 14.0 19.0 0.03 0.05 0.05 89 1014.9
20260506131557 52 76 13.0 19.0 0.02 0.04 0.04 89 1015.1
20260506131052 52 56 12.0 17.0 0.02 0.03 0.03 89 1015.4
20260506130551 52 66 11.0 14.0 0.03 0.03 0.03 89 1016.0
20260506130055 52 44 10.0 15.0 0.03 0.03 0.03 89 1016.0
20260506125550 52 21 9.0 17.0 0.02 0.02 0.02 89 1015.7
20260506125050 52 5 12.0 17.0 0.02 0.02 0.02 89 1015.5
20260506124600 52 42 10.0 16.0 0.02 0.02 0.02 88 1015.7
20260506124050 52 59 10.0 19.0 0.02 0.02 0.02 88 1015.7
20260506123550 52 44 13.0 19.0 0.02 0.02 0.02 88 1015.0
20260506123057 52 65 12.0 17.0 0.02 0.02 0.02 88 1014.4
20260506122551 52 52 12.0 18.0 0.02 0.02 0.02 87 1014.3
20260506122050 53 30 12.0 18.0 0.02 0.02 0.02 87 1014.6
20260506121607 53 44 10.0 15.0 0.02 0.02 0.02 87 1014.2
20260506121052 53 24 11.0 16.0 0.01 0.01 0.01 86 1014.7
20260506120552 53 32 11.0 16.0 0.00 0.00 0.00 85 1014.9
20260506120111 53 45 11.0 18.0 0.00 0.00 0.00 85 1014.7
20260506115552 53 40 14.0 18.0 0.00 0.00 0.00 85 1014.1
20260506115051 53 48 14.0 18.0 0.00 0.00 0.00 85 1013.8
20260506114614 53 28 12.0 17.0 0.00 0.00 0.00 85 1014.1
20260506114050 54 54 12.0 17.0 0.00 0.00 0.00 84 1014.1
20260506113551 54 44 12.0 17.0 0.00 0.00 0.00 84 1014.0
20260506113054 54 51 13.0 19.0 0.00 0.00 0.00 84 1013.9
20260506112550 54 31 13.0 19.0 0.00 0.00 0.00 83 1013.8
20260506112051 54 34 10.0 19.0 0.00 0.00 0.00 83 1013.7
20260506111553 54 360 12.0 18.0 0.00 0.00 0.00 84 1013.3
20260506111051 54 360 13.0 18.0 0.00 0.00 0.00 84 1013.3
20260506110550 54 360 9.0 15.0 0.00 0.00 0.00 84 1013.2
20260506110058 54 360 9.0 14.0 0.00 0.00 0.00 84 1013.2
20260506105554 54 360 9.0 14.0 0.00 0.00 0.00 84 1013.2
20260506105051 54 360 10.0 16.0 0.00 0.00 0.00 84 1013.3
20260506104554 54 360 11.0 16.0 0.00 0.00 0.00 84 1013.1
20260506104050 54 360 10.0 15.0 0.00 0.00 0.00 83 1013.1
20260506103551 54 360 9.0 13.0 0.00 0.00 0.00 83 1012.9
20260506103057 54 360 8.0 13.0 0.00 0.00 0.00 83 1013.2
20260506102551 54 360 10.0 14.0 0.00 0.00 0.00 83 1013.0
20260506102052 54 360 9.0 15.0 0.00 0.00 0.00 83 1013.0
20260506101605 54 360 9.0 16.0 0.00 0.00 0.00 83 1013.1
20260506101049 54 360 12.0 16.0 0.00 0.00 0.00 83 1012.7
20260506100549 55 360 10.0 15.0 0.00 0.00 0.00 83 1012.8
20260506100050 55 360 10.0 18.0 0.00 0.00 0.00 83 1013.1
20260506095547 55 360 11.0 18.0 0.00 0.00 0.00 82 1012.8
20260506095049 55 360 11.0 17.0 0.00 0.00 0.00 82 1012.8
20260506094550 55 360 10.0 19.0 0.00 0.00 0.00 82 1012.9
20260506094049 55 360 11.0 19.0 0.00 0.00 0.00 82 1012.8
20260506093551 55 360 11.0 18.0 0.00 0.00 0.00 82 1012.7
20260506093109 55 360 13.0 18.0 0.00 0.00 0.00 81 1012.4
20260506092551 56 360 12.0 18.0 0.00 0.00 0.00 81 1012.3
20260506092051 56 360 14.0 18.0 0.00 0.00 0.00 81 1012.1
20260506091553 56 360 11.0 18.0 0.00 0.00 0.00 81 1012.2
20260506091050 56 360 12.0 18.0 0.00 0.00 0.00 81 1012.1
20260506090550 56 360 13.0 18.0 0.00 0.00 0.00 81 1011.7
20260506090106 56 360 11.0 17.0 0.00 0.00 0.00 81 1011.7
20260506085550 57 360 12.0 17.0 0.00 0.00 0.00 80 1012.1
20260506085050 57 360 13.0 17.0 0.00 0.00 0.00 80 1012.1
20260506084555 57 360 11.0 14.0 0.00 0.00 0.00 79 1011.9
20260506084050 57 360 10.0 15.0 0.00 0.00 0.00 79 1012.1